Weather History for Kahului, HI

Change the Weather History Date:

Thursday, January 31, 2013

  Actual Average Record
Temperature  
Mean Temperature 73 °F 72 °F  
Max Temperature 77 °F 81 °F 88 °F (1953)
Min Temperature 69 °F 63 °F 50 °F (1972)
Degree Days  
Heating Degree Days 0 0  
Month to date heating degree days 0 0  
Since 1 July heating degree days 0 0  
Cooling Degree Days 8 7  
Month to date cooling degree days 231 217  
Year to date cooling degree days 231 217  
Growing Degree Days 22 (Base 50)    
Moisture  
Dew Point 67 °F    
Average Humidity 83    
Maximum Humidity 93    
Minimum Humidity 73    
Precipitation  
Precipitation 0.67 in 0.09 in 3.11 in (1974)
Month to date precipitation 1.99 2.87  
Year to date precipitation 1.99 2.87  
Snow  
Snow 0.00 in - - ()
Month to date snowfall 0.0  
Since 1 July snowfall 0.0  
Snow Depth 0.00 in    
Sea Level Pressure  
Sea Level Pressure 30.08 in    
Wind  
Wind Speed 11 mph (NE)    
Max Wind Speed 21 mph    
Max Gust Speed 28 mph    
Visibility 9 miles    
Events Rain    
T = Trace of Precipitation, MM = Missing Value Source: NWS Daily Summary

Daily Weather History Graph

Daily Weather History Graph

Search for Another Location

Airport:

Trip Planner

Search our weather history database for the weather conditions in past years. The results will help you decide how hot, cold, wet, or windy it might be!

Date:

Astronomy

Jan. 31, 2013 Rise Set
Actual Time 7:02 AM HST 6:16 PM HST
Civil Twilight 6:39 AM HST 6:39 PM HST
Nautical Twilight 6:12 AM HST 7:05 PM HST
Astronomical Twilight 5:46 AM HST 7:32 PM HST
Moon 10:41 PM HST (1/31) 9:52 AM HST (1/31)
Length of Visible Light 11h 59m
Length of Day
11h 13m
Waning Gibbous, 78% of the Moon is Illuminated
Jan 31
Waning Gibbous
Feb 3
Last Quarter
Feb 9
New
Feb 17
First Quarter
Feb 25
Full

Hourly Weather History & Observations

Time (HST) Temp. Dew Point Humidity Pressure Visibility Wind Dir Wind Speed Gust Speed Precip Events Conditions
12:54 AM 73.0 °F 66.9 °F 81% 30.07 in 10.0 mi ENE 4.6 mph - N/A   Mostly Cloudy
1:05 AM 71.6 °F 66.2 °F 83% 30.05 in 10.0 mi NE 5.8 mph - N/A   Mostly Cloudy
1:54 AM 72.0 °F 68.0 °F 87% 30.06 in 10.0 mi NE 4.6 mph - N/A   Mostly Cloudy
2:17 AM 71.6 °F 66.2 °F 83% 30.04 in 10.0 mi Calm Calm - N/A   Mostly Cloudy
2:54 AM 73.0 °F 68.0 °F 84% 30.05 in 10.0 mi NNE 10.4 mph - N/A   Mostly Cloudy
3:36 AM 73.4 °F 68.0 °F 83% 30.03 in 10.0 mi NNE 10.4 mph - N/A   Mostly Cloudy
3:54 AM 73.0 °F 66.9 °F 81% 30.04 in 10.0 mi NNE 11.5 mph - N/A   Mostly Cloudy
4:34 AM 73.4 °F 66.2 °F 78% 30.03 in 10.0 mi NNE 12.7 mph - N/A   Mostly Cloudy
4:54 AM 72.0 °F 66.9 °F 84% 30.04 in 10.0 mi NE 8.1 mph - 0.00 in Rain Light Rain
5:04 AM 71.6 °F 68.0 °F 88% 30.03 in 10.0 mi ENE 6.9 mph - 0.00 in Rain Light Rain
5:54 AM 72.0 °F 69.1 °F 91% 30.05 in 10.0 mi NE 8.1 mph - 0.02 in Rain Light Rain
6:54 AM 71.1 °F 68.0 °F 90% 30.07 in 9.0 mi NE 5.8 mph - 0.03 in Rain Light Rain
7:54 AM 71.6 °F 69.8 °F 94% 30.09 in 10.0 mi ENE 5.8 mph - 0.06 in   Mostly Cloudy
8:54 AM 73.0 °F 69.1 °F 87% 30.10 in 10.0 mi NE 9.2 mph - 0.01 in Rain Light Rain
8:58 AM 73.4 °F 69.8 °F 88% 30.09 in 10.0 mi NE 8.1 mph - 0.00 in Rain Light Rain
9:15 AM 71.6 °F 66.2 °F 83% 30.10 in 2.0 mi East 5.8 mph - 0.00 in Rain Light Rain
9:29 AM 69.8 °F 66.2 °F 88% 30.10 in 7.0 mi ENE 6.9 mph - 0.12 in Rain Heavy Rain
9:41 AM 69.8 °F 66.2 °F 88% 30.10 in 7.0 mi East 4.6 mph - 0.15 in Rain Rain
9:54 AM 71.1 °F 68.0 °F 90% 30.12 in 3.0 mi ENE 6.9 mph - 0.37 in Rain Rain
10:54 AM 73.0 °F 69.1 °F 87% 30.12 in 10.0 mi NE 12.7 mph - 0.16 in Rain Light Rain
11:54 AM 73.9 °F 69.1 °F 85% 30.11 in 8.0 mi NE 15.0 mph - 0.00 in Rain Light Rain
12:54 PM 73.9 °F 68.0 °F 82% 30.09 in 10.0 mi NE 13.8 mph - 0.01 in Rain Light Rain
1:54 PM 77.0 °F 68.0 °F 74% 30.07 in 10.0 mi NE 15.0 mph - 0.00 in   Overcast
2:54 PM 75.9 °F 69.1 °F 79% 30.06 in 10.0 mi NE 16.1 mph - N/A   Mostly Cloudy
3:54 PM 75.0 °F 66.9 °F 76% 30.06 in 10.0 mi NE 16.1 mph - N/A   Mostly Cloudy
4:54 PM 73.0 °F 66.0 °F 79% 30.07 in 10.0 mi ENE 12.7 mph - 0.00 in   Overcast
5:54 PM 73.0 °F 64.9 °F 76% 30.08 in 10.0 mi NE 9.2 mph - N/A   Scattered Clouds
6:54 PM 72.0 °F 66.0 °F 81% 30.09 in 10.0 mi NE 8.1 mph - N/A   Mostly Cloudy
7:54 PM 71.1 °F 66.9 °F 87% 30.11 in 10.0 mi ENE 10.4 mph - 0.01 in Rain Light Rain
8:54 PM 71.1 °F 66.9 °F 87% 30.13 in 10.0 mi ENE 10.4 mph - 0.00 in Rain Light Rain
9:54 PM 72.0 °F 66.0 °F 81% 30.13 in 10.0 mi NE 16.1 mph - 0.00 in Rain Light Rain
10:54 PM 72.0 °F 66.9 °F 84% 30.13 in 10.0 mi NE 16.1 mph - 0.00 in   Mostly Cloudy
11:43 PM 71.6 °F 66.2 °F 83% 30.10 in 10.0 mi NE 15.0 mph 21.9 mph 0.00 in Rain Light Rain
11:54 PM 72.0 °F 66.0 °F 81% 30.11 in 10.0 mi NE 19.6 mph 27.6 mph 0.00 in   Scattered Clouds